Location: Prairie Dale
(45.6972°N, 104.5033°W)
Time: 03:10:55
(UTC+00:00)

Oscar 19 - Visible Passes

Search period start: 29 June 2022 00:00
Search period end: 09 July 2022 00:00
Orbit: 772 x 790 km, 98.8° (Epoch: 28 June)

Date Brightness Start Highest point End Pass type
(mag) Time Alt. Az. Time Alt. Az. Time Alt. Az.
29 Jun 12.1 09:53:44 10° NNE 09:58:24 34° E 10:03:02 10° SSE visible
30 Jun 13.0 09:22:35 10° NE 09:26:05 18° E 09:29:33 10° SE visible
01 Jul 10.9 10:28:39 10° NNE 10:33:47 71° ESE 10:38:53 10° S visible
02 Jul 12.0 09:56:54 10° NNE 10:01:38 36° E 10:06:20 10° SSE visible
03 Jul 12.9 09:25:41 10° NE 09:29:20 19° E 09:32:57 10° SE visible
04 Jul 10.9 10:31:52 10° NNE 10:37:00 75° ESE 10:42:07 10° S visible
05 Jul 11.9 10:00:05 10° NNE 10:04:53 39° E 10:09:38 10° SSE visible
06 Jul 12.8 09:28:48 10° NE 09:32:35 20° E 09:36:21 10° SE visible
07 Jul 13.5 08:59:48 10° E 09:00:08 10° E 09:00:29 10° E visible
07 Jul 10.8 10:35:05 10° NNE 10:40:14 79° ESE 10:45:22 10° SSW visible
08 Jul 11.8 10:03:16 10° NNE 10:08:07 41° E 10:12:56 10° SSE visible
